Location: Ash Swamp
(41.5170°N, 74.6157°W)
Time: 17:12:01
(UTC+00:00)

CZ-4B DEB - Pass Details

Date: 14 July 2020
Orbit: 436 x 443 km, 97.3° (Epoch: 04 August)

Event Time Altitude Azimuth Distance (km) Brightness Sun altitude
Exits shadow 02:16:02 37° 135° (SE) 715 4.9 -15.8°
Maximum altitude 02:17:06 57° 76° (ENE) 532 4.5 -15.9°
Drops below altitude 10° 02:20:25 10° 356° (N) 1,576 8.0 -16.3°
Sets 02:22:28 0° 353° (N) 2,452 9.2 -16.6°
